Weather History for Ann Arbor, MI

Change the Weather History Date:

Friday, September 6, 2013

  Actual Average Record
Temperature  
Mean Temperature 56 °F -  
Max Temperature 73 °F 76 °F 87 °F (1999)
Min Temperature 39 °F 51 °F 39 °F (2013)
Degree Days  
Heating Degree Days 9    
Growing Degree Days 6 (Base 50)    
Moisture  
Dew Point 45 °F    
Average Humidity 80    
Maximum Humidity 100    
Minimum Humidity 41    
Precipitation  
Precipitation 0.00 in - - ()
Sea Level Pressure  
Sea Level Pressure 30.24 in    
Wind  
Wind Speed 1 mph (South)    
Max Wind Speed 8 mph    
Max Gust Speed -    
Visibility 6 miles    
Events Fog    
Averages and records for this station are not official NWS values.
T = Trace of Precipitation, MM = Missing Value Source: NWS Daily Summary

Daily Weather History Graph

Daily Weather History Graph

Search for Another Location

Airport:

Trip Planner

Search our weather history database for the weather conditions in past years. The results will help you decide how hot, cold, wet, or windy it might be!

Date:

Astronomy

Sep. 06, 2013 Rise Set
Actual Time 7:05 AM EDT 7:59 PM EDT
Civil Twilight 6:37 AM EDT 8:28 PM EDT
Nautical Twilight 6:03 AM EDT 9:02 PM EDT
Astronomical Twilight 5:27 AM EDT 9:37 PM EDT
Moon 8:19 AM EDT (9/6) 8:20 PM EDT (9/6)
Length of Visible Light 13h 51m
Length of Day
12h 54m
New Moon, 1% of the Moon is Illuminated
Sep 6
New Moon
Sep 12
First Quarter
Sep 19
Full
Sep 26
Last Quarter
Oct 4
New

Hourly Weather History & Observations

Time (EDT) Temp. Dew Point Humidity Pressure Visibility Wind Dir Wind Speed Gust Speed Precip Events Conditions
12:53 AM 48.9 °F 46.9 °F 93% 30.27 in 10.0 mi Calm Calm - N/A   Clear
1:53 AM 48.0 °F 46.9 °F 96% 30.27 in 10.0 mi Calm Calm - N/A   Clear
2:53 AM 46.0 °F 44.1 °F 93% 30.27 in 4.0 mi Calm Calm - N/A   Clear
3:32 AM 44.6 °F 44.6 °F 100% 30.28 in 1.8 mi Calm Calm - N/A   Clear
3:43 AM 46.4 °F 44.6 °F 93% 30.27 in 0.8 mi Calm Calm - N/A   Clear
3:53 AM 44.1 °F 44.1 °F 100% 30.27 in 0.2 mi Calm Calm - N/A Fog Fog
4:32 AM 44.6 °F 44.6 °F 100% 30.27 in 0.2 mi Calm Calm - N/A Fog Fog
4:53 AM 44.1 °F 43.0 °F 96% 30.27 in 0.5 mi Calm Calm - N/A Fog Fog
5:30 AM 41.0 °F 39.2 °F 93% 30.27 in 1.5 mi Calm Calm - N/A   Clear
5:33 AM 41.0 °F 39.2 °F 93% 30.27 in 1.2 mi Calm Calm - N/A   Partly Cloudy
5:35 AM 41.0 °F 39.2 °F 93% 30.27 in 0.8 mi Calm Calm - N/A   Mist
5:53 AM 39.9 °F 39.9 °F 100% 30.28 in 0.2 mi Calm Calm - N/A Fog Fog
6:10 AM 42.8 °F 42.8 °F 100% 30.27 in 0.8 mi Calm Calm - N/A   Clear
6:43 AM 42.8 °F 41.0 °F 93% 30.28 in 1.5 mi Calm Calm - N/A   Clear
6:45 AM 42.8 °F 41.0 °F 93% 30.28 in 3.0 mi Calm Calm - N/A   Clear
6:53 AM 43.0 °F 42.1 °F 97% 30.29 in 3.0 mi Calm Calm - N/A   Clear
6:57 AM 42.8 °F 41.0 °F 93% 30.28 in 1.2 mi Calm Calm - N/A   Clear
7:04 AM 41.0 °F 41.0 °F 100% 30.28 in 0.2 mi Calm Calm - N/A Fog Fog
7:48 AM 42.8 °F 42.8 °F 100% 30.28 in 1.8 mi Calm Calm - N/A   Clear
7:50 AM 42.8 °F 42.8 °F 100% 30.28 in 4.0 mi Calm Calm - N/A   Clear
7:53 AM 44.1 °F 43.0 °F 96% 30.29 in 7.0 mi Calm Calm - N/A   Clear
8:53 AM 55.9 °F 52.0 °F 87% 30.28 in 10.0 mi Calm Calm - N/A   Clear
9:53 AM 61.0 °F 45.0 °F 56% 30.28 in 10.0 mi Calm Calm - N/A   Clear
10:53 AM 64.0 °F 39.9 °F 41% 30.28 in 10.0 mi SW 4.6 mph - N/A   Clear
11:53 AM 66.9 °F 43.0 °F 42% 30.26 in 10.0 mi Variable 5.8 mph - N/A   Clear
12:53 PM 68.0 °F 45.0 °F 43% 30.24 in 10.0 mi Calm Calm - N/A   Clear
1:53 PM 71.1 °F 48.0 °F 44% 30.22 in 10.0 mi South 5.8 mph - N/A   Clear
2:53 PM 71.1 °F 48.0 °F 44% 30.19 in 10.0 mi South 6.9 mph - N/A   Clear
3:53 PM 73.0 °F 48.9 °F 42% 30.17 in 10.0 mi Variable 5.8 mph - N/A   Clear
4:53 PM 73.0 °F 48.9 °F 42% 30.16 in 10.0 mi South 8.1 mph - N/A   Clear
5:53 PM 73.0 °F 48.0 °F 41% 30.16 in 10.0 mi Calm Calm - N/A   Clear
6:53 PM 72.0 °F 51.1 °F 48% 30.14 in 10.0 mi South 4.6 mph - N/A   Clear
7:53 PM 66.0 °F 54.0 °F 65% 30.14 in 10.0 mi SSE 3.5 mph - N/A   Clear
8:53 PM 63.0 °F 54.0 °F 72% 30.12 in 10.0 mi SSE 3.5 mph - N/A   Clear
9:53 PM 55.9 °F 52.0 °F 87% 30.12 in 10.0 mi Calm Calm - N/A   Clear
10:53 PM 53.1 °F 51.1 °F 93% 30.10 in 10.0 mi Calm Calm - N/A   Clear
11:53 PM 52.0 °F 50.0 °F 93% 30.09 in 10.0 mi WSW 3.5 mph - N/A   Clear